Hoa Kỳ

Cặp tiền Tên Quy mô Hợp đồng Hoa hồng Ký quỹ Mức chênh lệch giá Giờ giao dịch
KO. The Coca-Cola Company 2000 $0 %5 Thả nổi 16:30 - 23:00
AAPL. Apple Inc. 200 $0 %5 Thả nổi 16:30 - 23:00
EBAY. eBay Inc. (EBAY) 2000 $0 %10 Thả nổi 14:30 - 21:00
META. Meta Platform Inc. 100 $0 %10 Thả nổi 16:30 - 23:00
GOOG. Alphabet Inc. 10 $0 %5 Thả nổi 16:30 - 23:00
TSLA. Tesla Motors, Inc. 10 $0 %10 Thả nổi 16:30 - 23:00
C. Citigroup Inc. 2000 $0 %10 Thả nổi 16:30 - 23:00
F. Ford Motor Co. 2000 $0 %10 Thả nổi 16:30 - 23:00
GM. General Motors 2000 $0 %10 Thả nổi 16:30 - 23:00
TWTR. Twitter, Inc. 2000 $0 %15 Thả nổi 16:30 - 23:00
NKE NIKE Inc 500 $0 %10 Thả nổi 16:30 - 23:00
NFLX Netflix, Inc. 100 $0 %10 Thả nổi 16:30 - 23:00
SNAP. Snap Inc 2000 $0 %10 Thả nổi 16:30 - 23:00
BABA. Alibaba Group Holding Ltd 200 $0 %5 Thả nổi 16:30 - 23:00
UBER. Uber Technologies Inc 1000 $0 %15 Thả nổi 16:30 - 23:00
SBUX. Starbucks Corporation 500 $0 %5 Thả nổi 16:30 - 23:00
NVDA. NVIDIA Corporation 100 $0 %10 Thả nổi 16:30 - 23:00
AMZN. Amazon.com Inc 10 $0 %5 Thả nổi 16:30 - 23:00
AMGN. Amgen Inc 200 $0 %5 Thả nổi 16:30 - 23:00
BA. The Boeing Company 200 $0 %5 Thả nổi 16:30 - 23:00
BIDU. Baidu 200 $0 20% Thả nổi 16:30 - 23:00
CAT. Caterpillar Inc 200 $0 %5 Thả nổi 16:30 - 23:00
DIS. Walt Disney Co 200 $0 %10 Thả nổi 16:30 - 23:00
GS. The Goldman Sachs Group Inc 200 $0 %10 Thả nổi 16:30 - 23:00
IBM. International Business Machines Co. 500 $0 %5 Thả nổi 16:30 - 23:00
INTC. Intel Corp 1000 $0 %5 Thả nổi 16:30 - 23:00
JPM. JP Morgan Chase & Co 200 $0 %5 Thả nổi 16:30 - 23:00
MA. Mastercard Incorporated 100 $0 %10 Thả nổi 16:30 - 23:00
MCD. McDonald's Corporation 200 $0 %5 Thả nổi 16:30 - 23:00
LYFT. Lyft Inc 2000 $0 %10 Thả nổi 16:30 - 23:00
UNH. UnitedHealth Group Inc. 200 $0 %10 Thả nổi 16:30 - 23:00
VISA. Visa Inc 200 $0 %10 Thả nổi 16:30 - 23:00
XOM. Exxon Mobil Co 2000 $0 %5 Thả nổi 16:30 - 23:00
CSCO. Cisco Systems Inc 2000 $0 %5 Thả nổi 16:30 - 23:00
T. AT&T, Inc. 2000 $0 %10 Thả nổi 16:30 - 23:00
CVX. Chevron Corp 500 $0 %5 Thả nổi 16:30 - 23:00
HPQ. HP Inc 2000 $0 %5 Thả nổi 16:30 - 23:00
PG. Procter & Gamble corporation 500 $0 %5 Thả nổi 16:30 - 23:00
QCOM. Qualcomm Inc. 500 $0 %5 Thả nổi 16:30 - 23:00
WMT. WallMart Stores Inc. 500 $0 %5 Thả nổi 16:30 - 23:00
BAC. Bank of America Corp 2000 $0 %5 Thả nổi 16:30 - 23:00
VRTX. Vertex Pharmaceuticals Inc 200 $0 %20 Thả nổi 16:30 - 23:00
REGN. Regeneron Pharmaceuticals Inc 100 $0 %20 Thả nổi 16:30 - 23:00
WFC. Wells Fargo & Company 2000 $0 %10 Thả nổi 16:30 - 23:00
DAL. Delta Air Lines Inc 2000 $0 %15 Thả nổi 16:30 - 23:00
EXPE. Expedia Group Inc 500 $0 %15 Thả nổi 16:30 - 23:00
CLX. The Clorox Company 200 $0 %15 Thả nổi 16:30 - 23:00
AMD. Advanced Micro Devices 1000 $0 %15 Thả nổi 16:30 - 23:00
ADBE. Adobe Systems Incorporated 100 $0 %15 Thả nổi 16:30 - 23:00
MMM. 3M Co. 200 $0 %5 Thả nổi 16:30 - 23:00
AIG. American Int. Group Inc 2000 $0 %10 Thả nổi 16:30 - 23:00
AXP. American Express Company 200 $0 %5 Thả nổi 16:30 - 23:00
ATVI. Activision Blizzard Inc 1000 $0 %5 Thả nổi 16:30 - 23:00
AON. Aon PLC 200 $0 %15 Thả nổi 16:30 - 23:00
JD. JD.com 500 $0 %30 Thả nổi 16:30 - 23:00
SIX. Six Flags Entertainment Corp 2000 $0 %20 Thả nổi 16:30 - 23:00
TTE. TotalEnergies SE 2000 $0 %20 Thả nổi 16:30 - 23:00
MSFT. Microsoft Corporation 200 $0 %5 Thả nổi 16:30 - 23:00
GE. General Electric 500 $0 %10 Thả nổi 16:30 - 23:00
AA Alcoa Corporation 2000 $0 20% Thả nổi 16:30 - 23:00
FANG. Diamondback Energy Inc 1000 $0 %30 Thả nổi 16:30 - 23:00
UAL. United Airlines Holdings Inc 2000 $0 %15 Thả nổi 16:30 - 23:00
NIO. NIO Inc 2000 $0 %20 Thả nổi 16:30 - 23:00
XPEV Xiaopeng Motors 2000 $0 20% Thả nổi 16:30 - 23:00
CIM Chimera Investment Corporation 2000 $0 20% Thả nổi 16:30 - 23:00
PFE. Pfizer Inc 2000 $0 10% Thả nổi 16:30 - 23:00
COTY Coty Inc 5000 $0 20% Thả nổi 16:30 - 23:00
MRNA Moderna Inc 500 $0 25% Thả nổi 16:30 - 23:00
ZOOM Zoom Video Communications Inc 100 $0 20% Thả nổi 16:30 - 23:00
JNJ. Johnson & Johnson 200 $0 10% Thả nổi 16:30 - 23:00
WBA. Walgreens Boots Alliance Inc 2000 $0 %10 Thả nổi 16:30 - 23:00
BLDP. Ballard Power Systems Inc. 2000 $0 %30 Thả nổi 16:30 - 23:00
BE. Bloom Energy Corp 2000 $0 20% Thả nổi 16:30 - 23:00
LI. Li Auto 2000 $0 %20 Thả nổi 16:30 - 23:00
LAC. Lithium Americas 2000 $0 %30 Thả nổi 16:30 - 23:00
LTHM. Livent Corp 2000 $0 %30 Thả nổi 16:30 - 23:00
PLUG. Plug Power Inc 2000 $0 %20 Thả nổi 16:30 - 23:00
WKHS. Workhorse Group Inc 1 $0 %20 Thả nổi 16:30 - 23:00
NOK. Nokia Corporation 5000 $0 %15 Thả nổi 16:30 - 23:00
SAP. SAP SE 500 $0 %10 Thả nổi 16:30 - 23:00
abt Abbott Laboratories 500 $0 %10 Thả nổi 16:30 - 23:00
BLNK. Blink Charging Co 1 $0 %20 Thả nổi 16:30 - 23:00
HYLN. Hyliion Holdings 2000 $0 %30 Thả nổi 16:30 - 23:00
LLY. Eli Lilly and Co 200 $0 %10 Thả nổi 16:30 - 23:00
NVS Novartis AG 500 $0 %15 Thả nổi 16:30 - 23:00
ADI. Analog Devices Inc 200 $0 %15 Thả nổi 16:30 - 23:00
ADSK. Autodesk Inc 200 $0 %10 Thả nổi 16:30 - 23:00
ALGN. Align Technology Inc 100 $0 %15 Thả nổi 16:30 - 23:00
AMAT. Applied Materials Inc 500 $0 %5 Thả nổi 16:30 - 23:00
ASML. ASML Holding NV 100 $0 %10 Thả nổi 16:30 - 23:00
BAP. Credicorp Ltd 500 $0 %15 Thả nổi 16:30 - 23:00
BBY. Best Buy Co Inc 500 $0 %10 Thả nổi 16:30 - 23:00
BIIB. Biogen Inc 200 $0 %15 Thả nổi 16:30 - 23:00
BNGO. Bionano Genomics Inc 5000 $0 %30 Thả nổi 16:30 - 23:00
CCL. Carnival Corp 2000 $0 %5 Thả nổi 16:30 - 23:00
CRM. Salesforce.com Inc 500 $0 %10 Thả nổi 16:30 - 23:00
CTSH. Cognizant Technology Solutions Corp 500 $0 %5 Thả nổi 16:30 - 23:00
FOXA. Fox Corp 2000 $0 %10 Thả nổi 16:30 - 23:00
GEVO. Gevo, Inc 5000 $0 %20 Thả nổi 16:30 - 23:00
IDXX. IDEXX Laboratories Inc 100 $0 %15 Thả nổi 16:30 - 23:00
ILMN. Illumina Inc 100 $0 %15 Thả nổi 16:30 - 23:00
KHC. Kraft Heinz Co 2000 $0 %10 Thả nổi 16:30 - 23:00
LBTYK. Liberty Global PLC 2000 $0 %15 Thả nổi 16:30 - 23:00
LRCX. Lam Research Corp 10 $0 %5 Thả nổi 16:30 - 23:00
MAR. Marriott International Inc 500 $0 %10 Thả nổi 16:30 - 23:00
MRK. Merck & Co Inc 500 $0 %10 Thả nổi 16:30 - 23:00
PLTR. Palantir Technologies Inc 2000 $0 %20 Thả nổi 16:30 - 23:00
PYPL. Paypal Holdings Inc 200 $0 %15 Thả nổi 16:30 - 23:00
RDS. Royal Dutch Shell plc 2000 $0 %10 Thả nổi 16:30 - 23:00
ROST. Ross Stores Inc 500 $0 %5 Thả nổi 16:30 - 23:00
RTX. Raytheon Technologies Corporation 1000 $0 %10 Thả nổi 16:30 - 23:00
SLB. Schlumberger Limited 2000 $0 %15 Thả nổi 16:30 - 23:00
TTCF. Tattooed Checf INC 2000 $0 %20 Thả nổi 16:30 - 23:00
TXN. Texas Instruments Inc 200 $0 %10 Thả nổi 16:30 - 23:00
WDAY. Workday Inc 200 $0 %15 Thả nổi 16:30 - 23:00
WDC. Western Digital Corp 1000 $0 %15 Thả nổi 16:30 - 23:00
CSX. CSX Corp 500 $0 %15 Thả nổi 16:30 - 23:00
CDNS. Cadence Design Systems Inc 500 $0 %20 Thả nổi 16:30 - 23:00
CHKP. Check Point Software Technologies Ltd 500 $0 %20 Thả nổi 16:30 - 23:00
CTAS. Cintas Corp 200 $0 %5 Thả nổi 16:30 - 23:00
SNPS. Synopsys Inc 200 $0 %15 Thả nổi 16:30 - 23:00
NVAX Novavax Inc 200 $0 %20 Thả nổi 16:30 - 23:00
TSN. Tyson Foods Inc 500 $0 %15 Thả nổi 16:30 - 23:00
ROKU. Roku Inc. 500 $0 %20 Thả nổi 16:30 - 23:00
BYND Beyond Meat Inc 500 $0 %20 Thả nổi 16:30 - 23:00
CVAC. CureVac NV 500 $0 %20 Thả nổi 16:30 - 23:00
LAZR. Luminar Technologies Inc 2000 $0 %20 Thả nổi 16:30 - 23:00
LCID. Lucid Group Inc 2000 $0 %20 Thả nổi 16:30 - 23:00
AAL. American Airlines Group Inc 2000 $0 %15 Thả nổi 16:30 - 23:00
BB. BlackBerry 2000 $0 %50 Thả nổi 16:30 - 23:00
HOOD. Robinhood Markets Inc 2000 $0 %20 Thả nổi 16:30 - 23:00
BNTX. BioNTech SE 200 $0 %20 Thả nổi 16:30 - 23:00
RIVN. Rivian Automotive Inc 500 $0 %20 Thả nổi 16:30 - 23:00
ETSY Etsy Inc 1 $0 %20 Thả nổi 16:30 - 23:00
W Wayfair Inc. 1 $0 %10 Thả nổi 16:30 - 23:00
RBLX Roblox Corporation 1 $0 %15 Thả nổi 16:30 - 23:00
UPST Upstart Consumer lending company 1 $0 %15 Thả nổi 16:30 - 23:00
COIN Coinbase Global Inc 1 $0 %20 Thả nổi 16:30 - 23:00
OKTA. Okta Inc 1 $0 %15 Thả nổi 16:30 - 23:00
ABNB Airbnb Inc 1 $0 %20 Thả nổi 16:30 - 23:00
WYNN. Wynn Resorts Ltd 1 $0 %10 Thả nổi 16:30 - 23:00
ENPH. Enphase Energy Inc 1 $0 %20 Thả nổi 16:30 - 23:00
GFS Globalfoundries Inc. 1 $0 %30 Thả nổi 16:30 - 23:00
WISH ContextLogic Inc 1 $0 %15 Thả nổi 16:30 - 23:00
FDX FedEx Corp 1 $0 10% Thả nổi 16:30 - 23:00
HD Home Depot Inc 1 $0 5% Thả nổi 16:30 - 23:00
  • Điều này bao gồm thông tin về quy mô hợp đồng cho tài khoản MT5
  • Quy mô hợp đồng trong tài khoản MT4 là 1 cổ phiếu/lot
  • Lưu ý: Giờ giao dịch dựa trên Giờ GMT + 2 (+1 giờ đối với Quy ước giờ mùa hè (DST)).
  • Lệnh chờ: vào lệnh ở mức giá tốt trong ngày, không bao gồm SL/TP (lệnh sẽ bị hủy vào cuối mỗi ngày)

Sẵn sàng bắt đầu?

Hãy mở tài khoản và khám phá lý do tại sao các nhà giao dịch luôn lựa chọn INGOT Brokers

Bạn cần hỗ trợ đăng ký? Hãy xem hướng dẫn của chúng tôi.

Cookies & Privacy:Cookie hỗ trợ chúng tôi trong việc bảo mật các hoạt động giao dịch của bạn và nâng cao hiệu suất trang web của chúng tôi. Cookie là các tệp văn bản nhỏ được gửi từ máy chủ web đến máy tính của bạn. Cookie được chúng tôi sử dụng không chứa bất kỳ dữ liệu khách hàng cá nhân hoặc thông tin tài khoản và mật khẩu. Click here để đọc thêm.